Weather Roundup
Issued by NWS Chicago, IL

Home | Current Version | Previous Version | Graphics & Text | Print | Product List | Glossary On
Versions: 1 2 3 4 5 6 7 8 9 10 11 12 13 14 15 16 17 18 19 20 21 22 23 24 25 26 27 28 29 30 31 32 33 34 35 36 37 38 39 40 41 42 43 44 45 46 47 48 49 50
000
NZUS59 KLOT 311303
HRRLOT

CHICAGO AREA WEATHER ROUNDUP
NATIONAL WEATHER SERVICE CHICAGO/ROMEOVILLE IL
800 AM CDT WED AUG 31 2016

NOTE: "FAIR" INDICATES FEW OR NO CLOUDS BELOW 12,000 FEET WITH NO
SIGNIFICANT WEATHER AND/OR OBSTRUCTIONS TO VISIBILITY.

* THESE STATIONS ARE NOT UNDER NWS QUALITY CONTROL. THEY ALSO MAY NOT
  REPORT WEATHER SUCH AS PRECIPITATION OR FOG.

ILZ005-006-012>014-019>023-311400-
NORTHEAST ILLINOIS

CITY           SKY/WX    TMP DP  RH WIND       PRES   REMARKS
OHARE          PTSUNNY   69  62  78 N8        30.07S
MIDWAY         CLOUDY    71  64  78 N10       30.06R
AURORA         CLOUDY    69  64  84 NE8       30.08R
LANSING*       CLOUDY    72  70  92 N7        30.04F
JOLIET*        CLOUDY    73  68  87 N9        30.06S
WAUKEGAN       SUNNY     67  60  78 N8        30.07S
DUPAGE AIRPORT PTSUNNY   68  62  81 N6        30.07S
WHEELING       MOSUNNY   68  62  81 N10       30.08R
KANKAKEE*      CLOUDY    72  69  90 N5        30.06S
MORRIS*        CLOUDY    71  68  93 CALM      30.05S
LEWIS AIRPORT* CLOUDY    70  69  96 N8        30.06S
NORTHERLY ISL    N/A     71  65  81 N14         N/A
$$

WIZ051-052-058>065-066-070>072-311400-
SOUTHEAST WISCONSIN

CITY           SKY/WX    TMP DP  RH WIND       PRES   REMARKS
MILWAUKEE      PTSUNNY   68  58  70 N12       30.09S
KENOSHA*       SUNNY     66  59  78 N7        30.09R
RACINE*        MOSUNNY   65  58  78 N12       30.10R
WAUKESHA       SUNNY     63  55  77 N6        30.12S
$$

INZ001>003-010>013-019-020-311400-
NORTHWEST INDIANA

CITY           SKY/WX    TMP DP  RH WIND       PRES   REMARKS
GARY*          CLOUDY    75  72  88 NW14      30.05S
MICHIGAN CITY* NOT AVBL
RENSSELAER*    NOT AVBL
VALPARAISO     CLOUDY    73  70  90 N3        30.04S
$$

LMZ740>746-311400-
SOUTHERN LAKE MICHIGAN

STATION/POSITION TIME  SKY/WX   TEMP WIND        PRES    VSBY
                                AIR  DIR/SP/G
                 (UTC)          (F)  (DEG/KT/KT) (MB)    (MI)
HARRISON CRIB    1200            71  330/ 17/ 19   N/A
BURNHAM HARBOR   1300            71  320/  8/ 14   N/A
CALUMET HARBOR   1200            71  320/  8/ 13 1017.1R
BURNS HARBOR     1204            74  350/  5/ 12 1017.6R
MICHIGAN CITY    1200            72  330/ 10/ 10   N/A
$$

ABBREVIATIONS USED IN REMARKS
   TC - TEMPERATURE IN CELSIUS
  WCI - WIND CHILL INDEX
   HX - HEAT INDEX
  VSB - VISIBILITY
$$




USA.gov is the U.S. government's official web portal to all federal, state and local government web resources and services.